C/2019 T2 ( Lemmon )

Japanese version
Home page
Updated on August 15, 2020

---------------------------------------------------------------------

* Profile

Discovery Date October 9, 2019
Magnitude 20.6 mag
Discoverer Mt. Lemmon Survey

* Pictures

* Orbital Elements

Epoch 2021 Apr. 16.0 TT = JDT 2459320.5
T 2021 Apr. 22.28107 TT                                 Rudenko
q   2.6459906            (2000.0)            P               Q
z  +0.0005242      Peri.  239.38626     +0.33389291     -0.86095517
 +/-0.0000027      Node   155.64244     -0.13766730     +0.35821866
e   0.9986129      Incl.  111.48934     -0.93250375     -0.36115868
From 233 observations 2019 Aug. 26-2020 Aug. 3, mean residual 0".5.

* Finding Charts

* Magnitudes Graph

        m1 = 8.0 + 5 log d + 11.0 log r

---------------------------------------------------------------------

The orbital elements are published on M.P.E.C. 2020-P19.
The charts are made with StellaNavigator Ver.10 (AstroArts).
The magnitudes graphs are made with Comet for Windows.

---------------------------------------------------------------------

Copyright(C) Seiichi Yoshida (comet@aerith.net). All rights reserved.